Weather reports worldwide

Advertisment
St. Mary's, United Kingdom (3803): temperature & dewpoint: 18.08.2019 06:00:00 - 24.08.2019 06:00:00 (BST)St. Mary's, United Kingdom (3803): temperature -20cm: 18.08.2019 06:00:00 - 24.08.2019 06:00:00 (BST)St. Mary's, United Kingdom (3803): wind speed & gusts: 18.08.2019 06:00:00 - 24.08.2019 06:00:00 (BST)St. Mary's, United Kingdom (3803): wind direction: 18.08.2019 06:00:00 - 24.08.2019 06:00:00 (BST)St. Mary's, United Kingdom (3803): reduced air pressure: 18.08.2019 06:00:00 - 24.08.2019 06:00:00 (BST)St. Mary's, United Kingdom (3803): visibility: 18.08.2019 06:00:00 - 24.08.2019 06:00:00 (BST)St. Mary's, United Kingdom (3803): precipitation: 18.08.2019 06:00:00 - 24.08.2019 06:00:00 (BST)
Date & Time tt [°C] td [°C] tt -20cm [°C] ff [km/h] ff [kn] fx [km/h] fx [kn] dd ppp [hPa] vv [km] rr [mm]
24.08.2019 06:00:00 17,3 16,2 - 24 13 - - ESE 1015,5 15 0,0
24.08.2019 05:00:00 17,3 16,2 - 26 14 - - ESE 1016,0 14 0,0
24.08.2019 04:00:00 17,2 16,0 - 26 14 - - ESE 1016,6 14 0,0
24.08.2019 03:00:00 17,3 15,8 - 24 13 - - ESE 1017,0 18 0,0
24.08.2019 02:00:00 17,3 15,9 - 22 12 - - ESE 1017,6 17 0,0
24.08.2019 01:00:00 17,4 16,1 - 26 14 - - ESE 1018,0 15 0,0
24.08.2019 00:00:00 17,3 16,0 - 28 15 - - ESE 1018,1 13 0,0
23.08.2019 23:00:00 17,2 16,1 - 26 14 - - ESE 1018,7 17 0,0
23.08.2019 22:00:00 17,1 16,0 - 22 12 - - ESE 1019,0 13 0,0
23.08.2019 21:00:00 17,2 16,0 - 24 13 - - ESE 1019,1 13 0,0
23.08.2019 20:00:00 17,5 16,0 - 26 14 - - ESE 1019,5 13 0,0
23.08.2019 19:00:00 18,1 16,3 - 26 14 - - ESE 1019,7 18 0,0
23.08.2019 18:00:00 18,5 16,5 - 22 12 - - ESE 1020,3 10 0,0
23.08.2019 17:00:00 18,9 16,6 - 18 10 - - SE 1020,7 10 0,0
23.08.2019 16:00:00 18,9 16,5 - 24 13 - - SE 1020,9 20 0,0
23.08.2019 15:00:00 18,9 16,5 - 22 12 - - SE 1021,4 10 0,0
23.08.2019 14:00:00 18,9 16,4 - 24 13 - - SE 1021,8 10 0,0
23.08.2019 13:00:00 18,5 16,2 - 24 13 - - ESE 1022,1 10 0,0
23.08.2019 12:00:00 18,2 15,9 - 26 14 - - ESE 1022,4 26 0,0
23.08.2019 11:00:00 18,1 15,4 - 26 14 - - ESE 1022,9 10 0,0
23.08.2019 10:00:00 17,9 15,1 18,4 22 12 - - ESE 1023,1 10 0,0
23.08.2019 09:00:00 17,2 14,5 - 22 12 - - ESE 1023,4 10 0,0
23.08.2019 08:00:00 16,5 14,6 - 21 11 - - SE 1023,5 10 0,0
23.08.2019 07:00:00 16,1 14,1 - 16 9 - - SE 1023,5 45 0,0
23.08.2019 06:00:00 16,3 14,2 - 15 8 - - SE 1023,9 50 0,0
23.08.2019 05:00:00 16,0 14,2 - 15 8 - - SE 1024,3 30 0,0
23.08.2019 04:00:00 15,8 14,4 - 13 7 - - SE 1024,5 35 0,0
23.08.2019 03:00:00 15,5 13,9 - 8 4 - - E 1024,9 40 0,0
23.08.2019 02:00:00 16,0 13,9 - 4 2 - - ESE 1025,2 45 0,0
23.08.2019 01:00:00 16,3 14,4 - 2 1 - - SE 1025,3 45 0,0
23.08.2019 00:00:00 16,5 14,6 - 4 2 - - W 1025,5 35 0,0
22.08.2019 23:00:00 16,6 14,8 - 4 2 - - WSW 1025,7 40 0,0
22.08.2019 22:00:00 16,5 15,3 - 8 4 - - WSW 1025,8 18 0,0
22.08.2019 21:00:00 16,2 14,9 - 9 5 - - SW 1025,7 16 0,0
22.08.2019 20:00:00 17,4 15,2 - 11 6 - - WSW 1025,5 27 0,0
22.08.2019 19:00:00 18,5 15,6 - 18 10 - - SW 1025,3 21 0,0
22.08.2019 18:00:00 18,6 15,6 - 16 9 - - SW 1025,6 10 0,0
22.08.2019 17:00:00 19,0 15,9 - 21 11 - - SW 1025,6 10 0,0
22.08.2019 16:00:00 19,3 16,0 - 21 11 - - SW 1025,9 10 0,0
22.08.2019 15:00:00 19,7 16,0 - 22 12 - - SW 1025,8 10 0,0
22.08.2019 14:00:00 19,7 15,9 - 21 11 - - SSW 1025,8 10 0,0
22.08.2019 13:00:00 19,1 16,0 - 21 11 - - SW 1026,0 10 0,0
22.08.2019 12:00:00 19,6 15,9 - 24 13 - - SW 1025,7 10 0,0
22.08.2019 11:00:00 18,9 15,6 - 24 13 - - SW 1025,7 10 0,0
22.08.2019 10:00:00 18,2 15,4 17,9 22 12 - - NW 1025,8 10 0,0
22.08.2019 09:00:00 17,3 14,8 - 24 13 - - SW 1025,6 10 0,0
22.08.2019 08:00:00 16,6 14,4 - 24 13 - - SW 1025,4 25 0,0
22.08.2019 07:00:00 15,9 13,9 - 24 13 - - SW 1024,7 40 0,0
22.08.2019 06:00:00 15,5 13,8 - 22 12 - - SW 1024,5 40 0,0
22.08.2019 05:00:00 15,6 13,8 - 18 10 - - SW 1024,8 35 0,0
22.08.2019 04:00:00 15,5 13,5 - 21 11 - - WSW 1025,1 45 0,0
22.08.2019 03:00:00 15,5 13,4 - 24 13 - - WSW 1025,1 35 0,0
22.08.2019 02:00:00 15,6 13,3 - 21 11 - - WSW 1025,3 30 0,0
22.08.2019 01:00:00 15,5 12,8 - 21 11 - - SW 1025,4 40 0,0
22.08.2019 00:00:00 15,8 13,1 - 22 12 - - SW 1025,6 40 0,0
21.08.2019 23:00:00 15,7 12,9 - 21 11 - - SW 1025,8 40 0,0
21.08.2019 22:00:00 15,7 13,3 - 21 11 - - SW 1025,8 40 0,0
21.08.2019 21:00:00 15,8 12,7 - 24 13 - - SW 1025,6 45 0,0
21.08.2019 20:00:00 16,2 12,5 - 21 11 - - SW 1025,6 45 0,0
21.08.2019 19:00:00 17,6 12,7 - 22 12 - - SW 1025,5 50 0,0
21.08.2019 18:00:00 18,3 13,0 - 22 12 - - SW 1025,8 23 0,0
21.08.2019 17:00:00 18,1 12,6 - 22 12 - - SW 1026,0 10 0,0
21.08.2019 16:00:00 18,6 12,8 - 24 13 - - SSW 1026,0 10 0,0
21.08.2019 15:00:00 18,9 13,0 - 22 12 - - SSW 1026,2 10 0,0
21.08.2019 14:00:00 18,9 13,6 - 22 12 - - SSW 1026,7 10 0,0
21.08.2019 13:00:00 18,5 13,2 - 21 11 - - SSW 1026,8 10 0,0
21.08.2019 12:00:00 17,8 12,8 - 21 11 - - SSW 1027,0 30 0,0
21.08.2019 11:00:00 18,2 12,9 - 22 12 - - SSW 1027,0 10 0,0
21.08.2019 10:00:00 16,8 13,7 17,7 21 11 - - SSW 1026,7 40 0,0
21.08.2019 09:00:00 16,5 13,7 - 21 11 - - SSW 1026,6 40 0,0
21.08.2019 08:00:00 16,4 14,0 - 15 8 - - SSW 1026,9 35 0,0
21.08.2019 07:00:00 15,2 13,7 - 16 9 - - SSW 1026,7 40 0,0
21.08.2019 06:00:00 15,3 13,3 - 16 9 - - SSW 1026,5 50 0,0
21.08.2019 05:00:00 14,8 13,0 - 15 8 - - SSW 1026,7 50 0,0
21.08.2019 04:00:00 14,9 13,1 - 15 8 - - SSW 1026,9 50 0,0
21.08.2019 03:00:00 14,6 12,7 - 13 7 - - SW 1027,1 40 0,0
21.08.2019 02:00:00 14,5 12,7 - 11 6 - - SW 1027,3 35 0,0
21.08.2019 01:00:00 14,8 13,1 - 13 7 - - SW 1027,4 35 0,0
21.08.2019 00:00:00 14,8 13,2 - 11 6 - - SW 1027,4 30 0,0
20.08.2019 23:00:00 14,7 13,1 - 9 5 - - WSW 1027,6 22 0,0
20.08.2019 22:00:00 15,2 13,0 - 11 6 - - WSW 1027,5 26 0,0
20.08.2019 21:00:00 15,5 12,7 - 15 8 - - WSW 1027,3 25 0,0
20.08.2019 20:00:00 16,3 12,8 - 15 8 - - WSW 1027,1 30 0,0
20.08.2019 19:00:00 17,6 13,0 - 16 9 - - WSW 1026,9 35 0,0
20.08.2019 18:00:00 17,8 12,7 - 18 10 - - W 1026,6 10 0,0
20.08.2019 17:00:00 18,8 13,2 - 18 10 - - WSW 1026,5 10 0,0
20.08.2019 16:00:00 19,0 12,6 - 21 11 - - WSW 1026,7 20 0,0
20.08.2019 15:00:00 18,7 12,9 - 18 10 - - WSW 1026,7 17 0,0
20.08.2019 14:00:00 18,8 12,9 - 18 10 - - WSW 1026,4 10 0,0
20.08.2019 13:00:00 18,8 13,0 - 16 9 - - WSW 1026,2 10 0,0
20.08.2019 12:00:00 18,5 12,1 - 18 10 - - WSW 1026,0 10 0,0
20.08.2019 11:00:00 17,8 12,5 - 16 9 - - WSW 1025,7 10 0,0
20.08.2019 10:00:00 17,1 11,7 17,2 15 8 - - W 1025,3 10 0,0
20.08.2019 09:00:00 16,3 11,9 - 13 7 - - W 1024,8 10 0,0
20.08.2019 08:00:00 15,1 11,8 - 11 6 - - W 1024,3 10 0,0
20.08.2019 07:00:00 14,4 11,0 - 13 7 - - WNW 1023,8 20 0,0
20.08.2019 06:00:00 14,3 10,9 - 16 9 - - WNW 1023,3 21 0,0
20.08.2019 05:00:00 14,2 11,5 - 13 7 - - WNW 1023,0 23 0,0
20.08.2019 04:00:00 14,3 10,7 - 18 10 - - WNW 1022,8 29 0,0
20.08.2019 03:00:00 14,5 11,4 - 16 9 - - WNW 1022,5 24 0,0
20.08.2019 02:00:00 14,7 11,2 - 18 10 - - WNW 1022,5 28 0,0
20.08.2019 01:00:00 14,8 11,4 - 18 10 - - WNW 1022,4 30 0,0
20.08.2019 00:00:00 14,9 11,7 - 18 10 - - W 1022,2 20 0,0
19.08.2019 23:00:00 14,9 11,3 - 21 11 - - W 1021,9 28 0,0
19.08.2019 22:00:00 14,9 11,6 - 16 9 - - W 1021,5 22 0,0
19.08.2019 21:00:00 15,1 11,0 - 24 13 - - WNW 1021,0 25 0,0
19.08.2019 20:00:00 15,6 10,8 - 22 12 - - W 1020,5 29 0,0
19.08.2019 19:00:00 16,6 11,2 - 24 13 - - W 1019,9 35 0,0
19.08.2019 18:00:00 17,4 12,0 - 24 13 - - W 1019,7 35 0,0
19.08.2019 17:00:00 17,9 12,6 - 28 15 - - W 1019,4 10 0,0
19.08.2019 16:00:00 18,4 12,8 - 26 14 - - W 1019,2 10 0,0
19.08.2019 15:00:00 18,5 12,4 - 24 13 - - W 1019,1 10 0,0
19.08.2019 14:00:00 18,1 12,5 - 28 15 - - W 1018,8 10 0,0
19.08.2019 13:00:00 17,9 13,2 - 24 13 - - WSW 1018,3 10 0,0
19.08.2019 12:00:00 17,0 12,2 - 22 12 - - W 1017,9 23 0,0
19.08.2019 11:00:00 17,5 12,2 - 18 10 - - W 1017,3 10 0,0
19.08.2019 10:00:00 16,0 12,1 17,2 24 13 - - W 1016,7 10 0,0
19.08.2019 09:00:00 16,4 12,3 - 22 12 - - W 1016,1 10 0,0
19.08.2019 08:00:00 15,1 11,1 - 24 13 - - W 1015,6 28 0,0
19.08.2019 07:00:00 14,8 12,3 - 22 12 50 27 W 1015,1 20 0,2
19.08.2019 06:00:00 15,1 12,1 - 21 11 - - W 1014,7 17 0,0
19.08.2019 05:00:00 15,3 11,7 - 28 15 - - W 1014,4 12 0,0
19.08.2019 04:00:00 15,3 11,9 - 26 14 50 27 W 1014,0 14 0,0
19.08.2019 03:00:00 15,1 11,3 - 31 17 - - W 1013,9 18 0,0
19.08.2019 02:00:00 15,1 11,4 - 28 15 48 26 W 1013,8 17 0,0
19.08.2019 01:00:00 15,2 11,3 - 31 17 48 26 W 1013,6 20 0,0
19.08.2019 00:00:00 15,2 11,9 - 35 19 57 31 W 1013,1 23 0,0
18.08.2019 23:00:00 15,7 11,9 - 34 18 46 25 W 1012,7 22 0,0
18.08.2019 22:00:00 15,4 11,6 - 35 19 52 28 W 1012,3 17 0,0
18.08.2019 21:00:00 15,6 11,4 - 39 21 54 29 W 1011,5 27 0,0
18.08.2019 20:00:00 16,0 12,0 - 34 18 48 26 W 1011,0 20 0,0
18.08.2019 19:00:00 17,0 12,1 - 34 18 46 25 W 1010,8 17 0,0
18.08.2019 18:00:00 17,5 12,0 - 35 19 48 26 W 1010,5 22 0,0
18.08.2019 17:00:00 17,6 12,5 - 35 19 50 27 W 1010,2 18 0,0
18.08.2019 16:00:00 18,4 12,9 - 39 21 52 28 W 1010,0 16 0,0
18.08.2019 15:00:00 18,5 12,6 - 37 20 55 30 WSW 1009,7 24 0,0
18.08.2019 14:00:00 18,0 12,6 - 31 17 48 26 W 1009,2 20 0,2
18.08.2019 13:00:00 17,9 12,7 - 34 18 48 26 W 1008,6 18 0,0
18.08.2019 12:00:00 17,8 13,4 - 28 15 - - W 1008,2 24 0,0
18.08.2019 11:00:00 17,4 12,6 - 34 18 50 27 W 1007,6 25 0,0
18.08.2019 10:00:00 17,1 12,1 17,5 31 17 48 26 W 1007,2 17 0,0
18.08.2019 09:00:00 15,8 11,7 - 28 15 46 25 W 1006,2 29 0,0
18.08.2019 08:00:00 14,9 11,9 - 31 17 - - W 1005,8 21 0,0
18.08.2019 07:00:00 13,9 11,5 - 31 17 - - W 1005,2 28 0,0
18.08.2019 06:00:00 13,4 11,7 - 28 15 55 30 W 1004,9 23 1,6

tt = temperature
td = dewpoint
tt -20cm = temperature -20cm
ff = wind speed
fx = gusts
dd = wind direction
ppp = reduced air pressure
vv = visibility
rr = precipitation

Next stations